Time,TemperatureF,DewpointF,PressureIn,WindDirection,WindDirectionDegrees,WindSpeedMPH,WindSpeedGustMPH,Humidity,HourlyPrecipIn,Conditions,Clouds,dailyrainin,SoftwareType,DateUTC
2013-02-20 00:01:00,4.0,1.0,30.22,NNW,348,0.0,16.0,85,-99.99,,,-99.99,,2013-02-20 06:01:00,
2013-02-20 00:11:00,4.0,1.0,30.22,NNW,348,0.0,16.0,85,-99.99,,,-99.99,,2013-02-20 06:11:00,
2013-02-20 00:21:00,4.0,0.0,30.24,NE,40,0.0,18.0,84,-99.99,,,-99.99,,2013-02-20 06:21:00,
2013-02-20 00:32:00,4.0,1.0,30.29,NNW,336,0.0,12.0,86,-99.99,,,-99.99,,2013-02-20 06:32:00,
2013-02-20 00:42:00,4.0,1.0,30.29,NNW,336,0.0,12.0,86,-99.99,,,-99.99,,2013-02-20 06:42:00,
2013-02-20 00:51:00,4.0,1.0,30.30,NNW,341,0.0,10.0,86,-99.99,,,-99.99,,2013-02-20 06:51:00,
2013-02-20 01:01:00,3.0,0.0,30.30,NNW,343,0.0,15.0,85,-99.99,,,-99.99,,2013-02-20 07:01:00,
2013-02-20 01:11:00,3.0,0.0,30.30,NNW,343,0.0,15.0,85,-99.99,,,-99.99,,2013-02-20 07:11:00,
2013-02-20 01:21:00,4.0,1.0,30.28,North,358,0.0,10.0,85,-99.99,,,-99.99,,2013-02-20 07:21:00,
2013-02-20 01:31:00,3.0,0.0,30.32,NW,320,0.0,12.0,87,-99.99,,,-99.99,,2013-02-20 07:31:00,
2013-02-20 01:42:00,3.0,0.0,30.32,NW,320,0.0,12.0,87,-99.99,,,-99.99,,2013-02-20 07:42:00,
2013-02-20 01:51:00,3.0,0.0,30.32,NW,314,0.0,10.0,86,-99.99,,,-99.99,,2013-02-20 07:51:00,
2013-02-20 02:05:00,4.0,1.0,30.31,WNW,297,0.0,9.0,87,-99.99,,,-99.99,,2013-02-20 08:05:00,
2013-02-20 02:11:00,4.0,1.0,30.31,WNW,297,0.0,9.0,87,-99.99,,,-99.99,,2013-02-20 08:11:00,
2013-02-20 02:21:00,4.0,1.0,30.29,West,280,0.0,11.0,87,-99.99,,,-99.99,,2013-02-20 08:21:00,
2013-02-20 02:31:00,3.0,0.0,30.33,NNW,331,0.0,10.0,88,-99.99,,,-99.99,,2013-02-20 08:31:00,
2013-02-20 02:41:00,3.0,0.0,30.33,NNW,331,0.0,10.0,88,-99.99,,,-99.99,,2013-02-20 08:41:00,
2013-02-20 02:52:00,3.0,0.0,30.30,NW,321,0.0,8.0,88,-99.99,,,-99.99,,2013-02-20 08:52:00,
2013-02-20 03:01:00,3.0,0.0,30.34,NNW,345,0.0,13.0,87,-99.99,,,-99.99,,2013-02-20 09:01:00,
2013-02-20 03:11:00,3.0,0.0,30.34,NNW,345,0.0,13.0,87,-99.99,,,-99.99,,2013-02-20 09:11:00,
2013-02-20 03:21:00,3.0,0.0,30.31,North,358,0.0,11.0,88,-99.99,,,-99.99,,2013-02-20 09:21:00,
2013-02-20 03:31:00,3.0,0.0,30.34,North,350,0.0,14.0,88,-99.99,,,-99.99,,2013-02-20 09:31:00,
2013-02-20 03:42:00,3.0,0.0,30.34,North,350,0.0,14.0,88,-99.99,,,-99.99,,2013-02-20 09:42:00,
2013-02-20 03:51:00,3.0,1.0,30.34,NW,306,0.0,8.0,89,-99.99,,,-99.99,,2013-02-20 09:51:00,
2013-02-20 04:01:00,3.0,0.0,30.34,West,280,0.0,10.0,88,-99.99,,,-99.99,,2013-02-20 10:01:00,
2013-02-20 04:12:00,3.0,0.0,30.34,West,280,0.0,10.0,88,-99.99,,,-99.99,,2013-02-20 10:12:00,
2013-02-20 04:22:00,3.0,1.0,30.31,NNW,347,0.0,10.0,89,-99.99,,,-99.99,,2013-02-20 10:22:00,
2013-02-20 04:32:00,3.0,1.0,30.34,NNW,340,0.0,11.0,89,-99.99,,,-99.99,,2013-02-20 10:32:00,
2013-02-20 04:42:00,3.0,1.0,30.34,NNW,340,0.0,11.0,89,-99.99,,,-99.99,,2013-02-20 10:42:00,
2013-02-20 04:51:00,3.0,1.0,30.29,ENE,67,0.0,7.0,89,-99.99,,,-99.99,,2013-02-20 10:51:00,
2013-02-20 05:02:00,3.0,1.0,30.34,North,360,0.0,9.0,89,-99.99,,,-99.99,,2013-02-20 11:02:00,
2013-02-20 05:11:00,3.0,1.0,30.34,North,360,0.0,9.0,89,-99.99,,,-99.99,,2013-02-20 11:11:00,
2013-02-20 05:21:00,2.0,0.0,30.30,NW,312,0.0,11.0,89,-99.99,,,-99.99,,2013-02-20 11:21:00,
2013-02-20 05:32:00,2.0,0.0,30.32,NNW,327,0.0,12.0,89,-99.99,,,-99.99,,2013-02-20 11:32:00,
2013-02-20 05:42:00,2.0,0.0,30.32,NNW,327,0.0,12.0,89,-99.99,,,-99.99,,2013-02-20 11:42:00,
2013-02-20 05:52:00,2.0,0.0,30.33,NW,307,0.0,9.0,90,-99.99,,,-99.99,,2013-02-20 11:52:00,
2013-02-20 06:02:00,2.0,0.0,30.33,North,4,0.0,11.0,90,-99.99,,,-99.99,,2013-02-20 12:02:00,
2013-02-20 06:12:00,2.0,0.0,30.33,North,4,0.0,11.0,90,-99.99,,,-99.99,,2013-02-20 12:12:00,
2013-02-20 06:21:00,2.0,0.0,30.29,NE,48,0.0,9.0,89,-99.99,,,-99.99,,2013-02-20 12:21:00,
2013-02-20 06:32:00,2.0,0.0,30.32,North,5,0.0,12.0,89,-99.99,,,-99.99,,2013-02-20 12:32:00,
2013-02-20 06:42:00,2.0,0.0,30.32,North,5,0.0,12.0,89,-99.99,,,-99.99,,2013-02-20 12:42:00,
2013-02-20 06:52:00,3.0,1.0,30.32,NNE,25,0.0,7.0,89,-99.99,,,-99.99,,2013-02-20 12:52:00,
2013-02-20 07:01:00,3.0,3.0,30.33,NNE,22,0.0,8.0,100,-99.99,,,-99.99,,2013-02-20 13:01:00,
2013-02-20 07:11:00,3.0,3.0,30.33,NNE,22,0.0,8.0,100,-99.99,,,-99.99,,2013-02-20 13:11:00,
2013-02-20 07:22:00,3.0,1.0,30.34,North,1,0.0,8.0,89,-99.99,,,-99.99,,2013-02-20 13:22:00,
2013-02-20 07:31:00,3.0,1.0,30.34,North,360,0.0,9.0,89,-99.99,,,-99.99,,2013-02-20 13:31:00,
2013-02-20 07:42:00,3.0,1.0,30.34,North,360,0.0,9.0,89,-99.99,,,-99.99,,2013-02-20 13:42:00,
2013-02-20 07:51:00,3.0,1.0,30.34,NNW,334,0.0,10.0,89,-99.99,,,-99.99,,2013-02-20 13:51:00,
2013-02-20 08:01:00,3.0,1.0,30.34,NNW,334,0.0,10.0,89,-99.99,,,-99.99,,2013-02-20 14:01:00,
2013-02-20 08:11:00,3.0,1.0,30.34,NNW,334,0.0,10.0,89,-99.99,,,-99.99,,2013-02-20 14:11:00,
2013-02-20 08:21:00,4.0,1.0,30.32,NE,35,0.0,9.0,88,-99.99,,,-99.99,,2013-02-20 14:21:00,
2013-02-20 08:32:00,5.0,2.0,30.35,ENE,57,0.0,12.0,87,-99.99,,,-99.99,,2013-02-20 14:32:00,
2013-02-20 08:42:00,5.0,2.0,30.35,ENE,57,0.0,12.0,87,-99.99,,,-99.99,,2013-02-20 14:42:00,
2013-02-20 08:52:00,5.0,2.0,30.31,NNE,19,0.0,10.0,87,-99.99,,,-99.99,,2013-02-20 14:52:00,
2013-02-20 09:01:00,5.0,2.0,30.31,NNE,19,0.0,10.0,87,-99.99,,,-99.99,,2013-02-20 15:01:00,
2013-02-20 09:11:00,5.0,2.0,30.31,NNE,19,0.0,10.0,87,-99.99,,,-99.99,,2013-02-20 15:11:00,
2013-02-20 09:22:00,7.0,3.0,30.34,NNE,24,0.0,5.0,85,-99.99,,,-99.99,,2013-02-20 15:22:00,
2013-02-20 09:32:00,8.0,4.0,30.36,NNW,334,0.0,0.0,85,-99.99,,,-99.99,,2013-02-20 15:32:00,
2013-02-20 09:42:00,8.0,4.0,30.36,NNW,334,0.0,0.0,85,-99.99,,,-99.99,,2013-02-20 15:42:00,
2013-02-20 09:52:00,9.0,5.0,30.38,NNW,328,0.0,8.0,83,-99.99,,,-99.99,,2013-02-20 15:52:00,
2013-02-20 10:01:00,10.0,6.0,30.38,WNW,283,0.0,5.0,84,-99.99,,,-99.99,,2013-02-20 16:01:00,
2013-02-20 10:12:00,10.0,6.0,30.38,WNW,283,0.0,5.0,84,-99.99,,,-99.99,,2013-02-20 16:12:00,
2013-02-20 10:21:00,10.0,5.0,30.35,NW,323,0.0,0.0,81,-99.99,,,-99.99,,2013-02-20 16:21:00,
2013-02-20 10:32:00,12.0,7.0,30.38,North,1,0.0,9.0,79,-99.99,,,-99.99,,2013-02-20 16:32:00,
2013-02-20 10:42:00,12.0,7.0,30.38,North,1,0.0,9.0,79,-99.99,,,-99.99,,2013-02-20 16:42:00,
2013-02-20 10:52:00,13.0,8.0,30.38,North,350,0.0,0.0,79,-99.99,,,-99.99,,2013-02-20 16:52:00,
2013-02-20 11:01:00,14.0,8.0,30.38,West,276,0.0,6.0,78,-99.99,,,-99.99,,2013-02-20 17:01:00,
2013-02-20 11:11:00,14.0,8.0,30.34,North,0,0.0,7.0,77,-99.99,,,-99.99,,2013-02-20 17:11:00,
2013-02-20 11:21:00,14.0,8.0,30.34,North,0,0.0,7.0,77,-99.99,,,-99.99,,2013-02-20 17:21:00,
2013-02-20 11:32:00,15.0,9.0,30.37,NW,320,0.0,0.0,76,-99.99,,,-99.99,,2013-02-20 17:32:00,
2013-02-20 11:42:00,15.0,9.0,30.37,NW,320,0.0,0.0,76,-99.99,,,-99.99,,2013-02-20 17:42:00,
2013-02-20 11:52:00,17.0,10.0,30.36,WNW,289,0.0,0.0,74,-99.99,,,-99.99,,2013-02-20 17:52:00,
2013-02-20 12:02:00,18.0,10.0,30.39,West,259,0.0,10.0,71,-99.99,,,-99.99,,2013-02-20 18:02:00,
2013-02-20 12:11:00,18.0,10.0,30.39,West,259,0.0,10.0,71,-99.99,,,-99.99,,2013-02-20 18:11:00,
2013-02-20 12:21:00,19.0,11.0,30.38,West,259,0.0,11.0,69,-99.99,,,-99.99,,2013-02-20 18:21:00,
2013-02-20 12:32:00,20.0,11.0,30.39,North,360,0.0,7.0,67,-99.99,,,-99.99,,2013-02-20 18:32:00,
2013-02-20 12:42:00,20.0,11.0,30.39,North,360,0.0,7.0,67,-99.99,,,-99.99,,2013-02-20 18:42:00,
2013-02-20 12:52:00,21.0,12.0,30.39,West,278,0.0,9.0,67,-99.99,,,-99.99,,2013-02-20 18:52:00,
2013-02-20 13:01:00,22.0,12.0,30.35,SSW,211,0.0,10.0,65,-99.99,,,-99.99,,2013-02-20 19:01:00,
2013-02-20 13:11:00,22.0,12.0,30.35,SSW,211,0.0,10.0,65,-99.99,,,-99.99,,2013-02-20 19:11:00,
2013-02-20 13:21:00,23.0,13.0,30.34,WSW,249,0.0,6.0,64,-99.99,,,-99.99,,2013-02-20 19:21:00,
2013-02-20 13:31:00,21.0,12.0,30.36,WNW,283,0.0,7.0,67,-99.99,,,-99.99,,2013-02-20 19:31:00,
2013-02-20 13:41:00,21.0,12.0,30.36,WNW,283,0.0,7.0,67,-99.99,,,-99.99,,2013-02-20 19:41:00,
2013-02-20 13:52:00,23.0,13.0,30.35,North,360,0.0,0.0,64,-99.99,,,-99.99,,2013-02-20 19:52:00,
2013-02-20 14:01:00,24.0,14.0,30.25,West,272,0.0,9.0,65,-99.99,,,-99.99,,2013-02-20 20:01:00,
2013-02-20 14:11:00,23.0,13.0,30.28,North,8,0.0,8.0,64,-99.99,,,-99.99,,2013-02-20 20:11:00,
2013-02-20 14:21:00,23.0,13.0,30.28,North,8,0.0,8.0,64,-99.99,,,-99.99,,2013-02-20 20:21:00,
2013-02-20 14:31:00,24.0,14.0,30.33,North,360,0.0,6.0,65,-99.99,,,-99.99,,2013-02-20 20:31:00,
2013-02-20 14:41:00,24.0,14.0,30.33,North,360,0.0,6.0,65,-99.99,,,-99.99,,2013-02-20 20:41:00,
2013-02-20 14:51:00,24.0,14.0,30.33,NNE,28,0.0,9.0,64,-99.99,,,-99.99,,2013-02-20 20:51:00,
2013-02-20 15:01:00,24.0,14.0,30.25,North,1,0.0,11.0,66,-99.99,,,-99.99,,2013-02-20 21:01:00,
2013-02-20 15:11:00,24.0,14.0,30.25,North,1,0.0,11.0,66,-99.99,,,-99.99,,2013-02-20 21:11:00,
2013-02-20 15:21:00,24.0,15.0,30.28,ENE,69,0.0,12.0,68,-99.99,,,-99.99,,2013-02-20 21:21:00,
2013-02-20 15:31:00,24.0,15.0,30.31,NNW,333,0.0,11.0,69,-99.99,,,-99.99,,2013-02-20 21:31:00,
2013-02-20 15:42:00,24.0,15.0,30.31,NNW,333,0.0,11.0,69,-99.99,,,-99.99,,2013-02-20 21:42:00,
2013-02-20 15:51:00,25.0,16.0,30.28,NW,324,0.0,5.0,68,-99.99,,,-99.99,,2013-02-20 21:51:00,
2013-02-20 16:01:00,25.0,16.0,30.27,North,1,0.0,9.0,69,-99.99,,,-99.99,,2013-02-20 22:01:00,
2013-02-20 16:11:00,25.0,16.0,30.27,North,1,0.0,9.0,69,-99.99,,,-99.99,,2013-02-20 22:11:00,
2013-02-20 16:21:00,25.0,17.0,30.31,NNE,21,0.0,7.0,70,-99.99,,,-99.99,,2013-02-20 22:21:00,
2013-02-20 16:31:00,25.0,17.0,30.30,North,352,0.0,9.0,70,-99.99,,,-99.99,,2013-02-20 22:31:00,
2013-02-20 16:42:00,25.0,17.0,30.30,North,352,0.0,9.0,70,-99.99,,,-99.99,,2013-02-20 22:42:00,
2013-02-20 16:51:00,25.0,17.0,30.29,North,360,0.0,6.0,71,-99.99,,,-99.99,,2013-02-20 22:51:00,
2013-02-20 17:01:00,25.0,17.0,30.29,NNE,25,0.0,0.0,70,-99.99,,,-99.99,,2013-02-20 23:01:00,
2013-02-20 17:12:00,25.0,17.0,30.29,NNE,25,0.0,0.0,70,-99.99,,,-99.99,,2013-02-20 23:12:00,
2013-02-20 17:22:00,25.0,17.0,30.29,NNE,25,0.0,0.0,71,-99.99,,,-99.99,,2013-02-20 23:22:00,
2013-02-20 17:32:00,25.0,17.0,30.29,NNW,341,0.0,6.0,72,-99.99,,,-99.99,,2013-02-20 23:32:00,
2013-02-20 17:42:00,25.0,17.0,30.29,NNW,341,0.0,6.0,72,-99.99,,,-99.99,,2013-02-20 23:42:00,
2013-02-20 17:52:00,25.0,18.0,30.29,NNW,348,0.0,0.0,73,-99.99,,,-99.99,,2013-02-20 23:52:00,
2013-02-20 18:03:00,24.0,17.0,30.26,NNW,348,0.0,0.0,75,-99.99,,,-99.99,,2013-02-21 00:03:00,
2013-02-20 18:11:00,24.0,17.0,30.26,NNW,348,0.0,0.0,75,-99.99,,,-99.99,,2013-02-21 00:11:00,
2013-02-20 18:21:00,24.0,18.0,30.28,NNW,348,0.0,0.0,76,-99.99,,,-99.99,,2013-02-21 00:21:00,
2013-02-20 18:32:00,23.0,17.0,30.30,NNW,348,0.0,0.0,78,-99.99,,,-99.99,,2013-02-21 00:32:00,
2013-02-20 18:42:00,23.0,17.0,30.30,NNW,348,0.0,0.0,78,-99.99,,,-99.99,,2013-02-21 00:42:00,
2013-02-20 18:52:00,23.0,18.0,30.30,NNW,348,0.0,0.0,80,-99.99,,,-99.99,,2013-02-21 00:52:00,
2013-02-20 19:01:00,23.0,18.0,30.30,ENE,63,0.0,6.0,81,-99.99,,,-99.99,,2013-02-21 01:01:00,
2013-02-20 19:11:00,23.0,18.0,30.30,ENE,63,0.0,6.0,81,-99.99,,,-99.99,,2013-02-21 01:11:00,
2013-02-20 19:21:00,22.0,17.0,30.30,ENE,63,0.0,0.0,82,-99.99,,,-99.99,,2013-02-21 01:21:00,
2013-02-20 19:32:00,22.0,18.0,30.30,ENE,63,0.0,0.0,84,-99.99,,,-99.99,,2013-02-21 01:32:00,
2013-02-20 19:42:00,22.0,18.0,30.30,ENE,63,0.0,0.0,84,-99.99,,,-99.99,,2013-02-21 01:42:00,
2013-02-20 19:51:00,21.0,17.0,30.29,ENE,63,0.0,0.0,84,-99.99,,,-99.99,,2013-02-21 01:51:00,
2013-02-20 20:01:00,21.0,17.0,30.25,ENE,63,0.0,0.0,83,-99.99,,,-99.99,,2013-02-21 02:01:00,
2013-02-20 20:11:00,21.0,17.0,30.25,ENE,63,0.0,0.0,83,-99.99,,,-99.99,,2013-02-21 02:11:00,
2013-02-20 20:21:00,21.0,17.0,30.29,ENE,63,0.0,0.0,83,-99.99,,,-99.99,,2013-02-21 02:21:00,
2013-02-20 20:32:00,21.0,17.0,30.30,ENE,63,0.0,0.0,83,-99.99,,,-99.99,,2013-02-21 02:32:00,
2013-02-20 20:42:00,21.0,17.0,30.30,ENE,63,0.0,0.0,83,-99.99,,,-99.99,,2013-02-21 02:42:00,
2013-02-20 20:51:00,21.0,17.0,30.30,ENE,63,0.0,0.0,83,-99.99,,,-99.99,,2013-02-21 02:51:00,
2013-02-20 21:02:00,20.0,16.0,30.31,ENE,70,0.0,11.0,85,-99.99,,,-99.99,,2013-02-21 03:02:00,
2013-02-20 21:12:00,20.0,16.0,30.31,ENE,70,0.0,11.0,85,-99.99,,,-99.99,,2013-02-21 03:12:00,
2013-02-20 21:21:00,20.0,16.0,30.28,ENE,72,0.0,8.0,86,-99.99,,,-99.99,,2013-02-21 03:21:00,
2013-02-20 21:32:00,19.0,16.0,30.31,East,88,0.0,9.0,86,-99.99,,,-99.99,,2013-02-21 03:32:00,
2013-02-20 21:42:00,19.0,16.0,30.31,East,88,0.0,9.0,86,-99.99,,,-99.99,,2013-02-21 03:42:00,
2013-02-20 21:51:00,19.0,16.0,30.32,NE,53,0.0,8.0,86,-99.99,,,-99.99,,2013-02-21 03:51:00,
2013-02-20 22:01:00,19.0,16.0,30.32,East,88,0.0,8.0,86,-99.99,,,-99.99,,2013-02-21 04:01:00,
2013-02-20 22:11:00,19.0,16.0,30.32,East,88,0.0,8.0,86,-99.99,,,-99.99,,2013-02-21 04:11:00,
2013-02-20 22:22:00,19.0,16.0,30.33,ENE,73,0.0,6.0,86,-99.99,,,-99.99,,2013-02-21 04:22:00,
2013-02-20 22:32:00,19.0,16.0,30.31,East,81,0.0,6.0,87,-99.99,,,-99.99,,2013-02-21 04:32:00,
2013-02-20 22:42:00,19.0,16.0,30.31,East,81,0.0,6.0,87,-99.99,,,-99.99,,2013-02-21 04:42:00,
2013-02-20 22:51:00,18.0,15.0,30.33,East,90,0.0,5.0,88,-99.99,,,-99.99,,2013-02-21 04:51:00,
2013-02-20 23:02:00,18.0,15.0,30.32,East,87,0.0,7.0,88,-99.99,,,-99.99,,2013-02-21 05:02:00,
2013-02-20 23:12:00,18.0,15.0,30.32,East,87,0.0,7.0,88,-99.99,,,-99.99,,2013-02-21 05:12:00,
2013-02-20 23:22:00,18.0,15.0,30.33,ENE,70,0.0,5.0,89,-99.99,,,-99.99,,2013-02-21 05:22:00,
2013-02-20 23:34:00,18.0,15.0,30.32,East,84,0.0,6.0,89,-99.99,,,-99.99,,2013-02-21 05:34:00,
2013-02-20 23:44:00,18.0,15.0,30.32,East,84,0.0,6.0,89,-99.99,,,-99.99,,2013-02-21 05:44:00,
2013-02-20 23:53:00,18.0,15.0,30.32,East,98,0.0,7.0,88,-99.99,,,-99.99,,2013-02-21 05:53:00,